Weather History for Pine Ridge, SD

Change the Weather History Date:

Thursday, May 23, 2013

  Actual Average Record
Temperature  
Mean Temperature 56 °F 58 °F  
Max Temperature 69 °F 72 °F 91 °F (2005)
Min Temperature 43 °F 44 °F 26 °F (2002)
Degree Days  
Heating Degree Days 9 8  
Month to date heating degree days 262 254  
Since 1 July heating degree days 7041 7074  
Cooling Degree Days 0 1  
Month to date cooling degree days 15 6  
Year to date cooling degree days 15 6  
Growing Degree Days 6 (Base 50)    
Moisture  
Dew Point 43 °F    
Average Humidity 66    
Maximum Humidity 93    
Minimum Humidity 39    
Precipitation  
Precipitation 0.00 in 0.08 in 0.20 in (2014)
Month to date precipitation 2.24 1.88  
Year to date precipitation 4.71 5.45  
Sea Level Pressure  
Sea Level Pressure 30.11 in    
Wind  
Wind Speed 16 mph (ESE)    
Max Wind Speed 29 mph    
Max Gust Speed 36 mph    
Visibility 10 miles    
Events      
T = Trace of Precipitation, MM = Missing Value Source: NWS Daily Summary

Daily Weather History Graph

Daily Weather History Graph

Search for Another Location

Airport:

Trip Planner

Search our weather history database for the weather conditions in past years. The results will help you decide how hot, cold, wet, or windy it might be!

Date:

Astronomy

May. 23, 2013 Rise Set
Actual Time 5:19 AM MDT 8:15 PM MDT
Civil Twilight 4:45 AM MDT 8:48 PM MDT
Nautical Twilight 4:02 AM MDT 9:31 PM MDT
Astronomical Twilight 3:13 AM MDT 10:21 PM MDT
Moon 6:48 PM MDT (5/23) 4:08 AM MDT (5/23)
Length of Visible Light 16h 03m
Length of Day
14h 55m
Waxing Gibbous, 97% of the Moon is Illuminated
May 23
Waxing Gibbous
May 24
Full
May 31
Last Quarter
Jun 8
New
Jun 16
First Quarter

Hourly Weather History & Observations

Time (MDT) Temp. Windchill Dew Point Humidity Pressure Visibility Wind Dir Wind Speed Gust Speed Precip Events Conditions
12:09 AM 50.0 °F - 46.4 °F 87% 30.16 in 10.0 mi East 5.8 mph - N/A   Overcast
12:18 AM 50.0 °F - 46.4 °F 87% 30.16 in 10.0 mi East 6.9 mph - N/A   Overcast
12:29 AM 48.2 °F - 46.4 °F 93% 30.16 in 10.0 mi East 9.2 mph - N/A   Overcast
12:44 AM 48.2 °F - 46.4 °F 93% 30.16 in 10.0 mi East 6.9 mph - N/A   Overcast
12:52 AM 48.9 °F - 46.0 °F 90% 30.15 in 10.0 mi East 6.9 mph - N/A   Overcast
1:22 AM 48.2 °F - 46.4 °F 93% 30.15 in 10.0 mi East 6.9 mph - N/A   Overcast
1:52 AM 48.9 °F - 46.9 °F 93% 30.14 in 10.0 mi East 4.6 mph - N/A   Overcast
2:52 AM 48.9 °F - 45.0 °F 86% 30.16 in 10.0 mi ESE 5.8 mph - N/A   Overcast
3:52 AM 48.0 °F - 44.1 °F 86% 30.12 in 10.0 mi ENE 11.5 mph - N/A   Partly Cloudy
4:52 AM 44.1 °F - 42.1 °F 93% 30.17 in 10.0 mi Calm Calm - N/A   Clear
5:52 AM 46.0 °F 43.1 °F 43.0 °F 89% 30.18 in 10.0 mi SE 5.8 mph - N/A   Clear
6:52 AM 48.9 °F - 43.0 °F 80% 30.19 in 10.0 mi SE 8.1 mph - N/A   Clear
7:52 AM 52.0 °F - 39.0 °F 61% 30.19 in 10.0 mi SE 17.3 mph 25.3 mph N/A   Clear
8:52 AM 55.0 °F - 36.0 °F 49% 30.19 in 10.0 mi ESE 19.6 mph 31.1 mph N/A   Clear
9:52 AM 57.9 °F - 37.0 °F 46% 30.17 in 10.0 mi SE 24.2 mph 32.2 mph N/A   Scattered Clouds
10:52 AM 59.0 °F - 39.0 °F 48% 30.15 in 10.0 mi SE 20.7 mph 28.8 mph N/A   Mostly Cloudy
11:52 AM 63.0 °F - 41.0 °F 45% 30.13 in 10.0 mi ESE 20.7 mph 31.1 mph N/A   Clear
12:52 PM 64.9 °F - 42.1 °F 43% 30.12 in 10.0 mi SE 19.6 mph 33.4 mph N/A   Clear
1:52 PM 66.0 °F - 42.1 °F 42% 30.09 in 10.0 mi SE 20.7 mph 27.6 mph N/A   Scattered Clouds
2:52 PM 66.9 °F - 42.1 °F 40% 30.07 in 10.0 mi SE 23.0 mph 33.4 mph N/A   Partly Cloudy
3:52 PM 68.0 °F - 42.1 °F 39% 30.05 in 10.0 mi SSE 20.7 mph 34.5 mph N/A   Clear
4:52 PM 68.0 °F - 42.1 °F 39% 30.05 in 10.0 mi SE 21.9 mph 31.1 mph N/A   Clear
5:52 PM 66.9 °F - 45.0 °F 45% 30.04 in 10.0 mi SE 19.6 mph 27.6 mph N/A   Clear
6:52 PM 66.0 °F - 45.0 °F 47% 30.01 in 10.0 mi SE 19.6 mph 28.8 mph N/A   Clear
7:52 PM 63.0 °F - 46.0 °F 54% 30.03 in 10.0 mi SSE 13.8 mph 24.2 mph N/A   Clear
8:52 PM 60.1 °F - 45.0 °F 57% 30.03 in 10.0 mi SE 13.8 mph - N/A   Partly Cloudy
9:52 PM 59.0 °F - 45.0 °F 60% 30.02 in 10.0 mi ESE 16.1 mph 27.6 mph N/A   Clear
10:52 PM 57.9 °F - 45.0 °F 62% 30.01 in 10.0 mi ESE 16.1 mph 26.5 mph N/A   Clear
11:52 PM 55.9 °F - 45.0 °F 67% 30.00 in 10.0 mi SE 18.4 mph 28.8 mph N/A   Clear